Location: Newark
(45.8511°N, 10.8245°E)
Time: 19:45:31
(UTC+00:00)

OTV 5 (USA 277) - Pass Details

Date: 23 August 2019
Orbit: 295 x 339 km, 54.5° (Epoch: 08 September)

Event Time Altitude Azimuth Distance (km) Brightness Sun altitude
Exits shadow 02:57:40 21° 170° (S) 737 ? -14.6°
Drops below altitude 10° 02:58:52 10° 154° (SSE) 1,171 ? -14.4°
Sets 03:00:54 0° 144° (SE) 1,998 ? -14.1°
